Ontario, OR

2:27 PM MDT on October 15, 2019 (GMT -0600)
Ontario Municipal

Weather History for KONO - September, 2019

Change the Weather History Date:

Monday, September 16, 2019

  Actual Average Record
Temperature  
Mean Temperature 68 °F 63 °F  
Max Temperature 81 °F 81 °F 95 °F (1957)
Min Temperature 55 °F 45 °F 30 °F (1970)
Degree Days  
Heating Degree Days 0 4  
Month to date heating degree days 6 35  
Since 1 July heating degree days 6 51  
Cooling Degree Days 3 2  
Month to date cooling degree days 109 47  
Year to date cooling degree days 1143 840  
Growing Degree Days 18 (Base 50)    
Moisture  
Dew Point 44 °F    
Average Humidity 55    
Maximum Humidity 86    
Minimum Humidity 23    
Precipitation  
Precipitation 0.29 in 0.01 in 0.33 in (1976)
Month to date precipitation 0.33 0.18  
Year to date precipitation 10.21 6.42  
Sea Level Pressure  
Sea Level Pressure 29.75 in    
Wind  
Wind Speed 9 mph (West)    
Max Wind Speed 29 mph    
Max Gust Speed 36 mph    
Visibility 10 miles    
Events Rain    
T = Trace of Precipitation, MM = Missing Value Source: NWS Daily Summary

Daily Weather History Graph

Daily Weather History Graph

Search for Another Location

Airport or City:

Astronomy

Sep. 16, 2019 Rise Set
Actual Time 7:28 AM MDT 7:56 PM MDT
Civil Twilight 6:59 AM MDT 8:25 PM MDT
Nautical Twilight 6:24 AM MDT 8:59 PM MDT
Astronomical Twilight 5:49 AM MDT 9:35 PM MDT
Moon 9:29 PM MDT (9/16) 9:42 AM MDT (9/16)
Length of Visible Light 13h 26m
Length of Day
12h 28m
Waning Gibbous, 94% of the Moon is Illuminated
Sep 16
Waning Gibbous
Sep 21
Last Quarter
Sep 28
New
Oct 5
First Quarter
Oct 13
Full

Hourly Weather History & Observations

Time (MDT) Temp. Dew Point Humidity Pressure Visibility Wind Dir Wind Speed Gust Speed Precip Events Conditions
12:53 AM 64.9 °F 42.1 °F 43% 29.66 in 10.0 mi Variable 3.5 mph - N/A   Clear
1:53 AM 63.0 °F 42.1 °F 46% 29.69 in 10.0 mi NW 11.5 mph - N/A   Clear
2:53 AM 63.0 °F 42.1 °F 46% 29.70 in 10.0 mi NW 10.4 mph - N/A   Clear
3:53 AM 60.1 °F 43.0 °F 53% 29.70 in 10.0 mi WNW 8.1 mph - N/A   Clear
4:53 AM 57.9 °F 43.0 °F 58% 29.71 in 10.0 mi West 6.9 mph - N/A   Clear
5:53 AM 59.0 °F 43.0 °F 55% 29.70 in 10.0 mi WNW 8.1 mph - N/A   Clear
6:53 AM 57.0 °F 44.1 °F 62% 29.70 in 10.0 mi WNW 4.6 mph - N/A   Clear
7:53 AM 55.9 °F 44.1 °F 64% 29.72 in 10.0 mi West 5.8 mph - N/A   Clear
8:53 AM 57.0 °F 46.0 °F 67% 29.73 in 10.0 mi SW 3.5 mph - N/A   Clear
9:53 AM 61.0 °F 46.0 °F 58% 29.73 in 10.0 mi WSW 3.5 mph - N/A   Clear
10:53 AM 63.0 °F 45.0 °F 52% 29.74 in 10.0 mi Calm Calm - N/A   Clear
11:53 AM 69.1 °F 45.0 °F 42% 29.74 in 10.0 mi Variable 3.5 mph - N/A   Clear
12:53 PM 73.0 °F 44.1 °F 35% 29.72 in 10.0 mi West 6.9 mph - N/A   Clear
1:53 PM 75.0 °F 43.0 °F 32% 29.71 in 10.0 mi West 10.4 mph - N/A   Clear
2:53 PM 77.0 °F 39.9 °F 26% 29.71 in 10.0 mi West 13.8 mph - N/A   Clear
3:53 PM 81.0 °F 39.9 °F 23% 29.70 in 10.0 mi West 12.7 mph - N/A   Clear
4:53 PM 73.9 °F 39.9 °F 29% 29.74 in 10.0 mi West 23.0 mph - N/A   Clear
5:53 PM 71.1 °F 39.0 °F 31% 29.76 in 10.0 mi West 18.4 mph 26.5 mph N/A   Clear
6:53 PM 68.0 °F 39.0 °F 35% 29.79 in 10.0 mi West 9.2 mph 19.6 mph N/A   Clear
7:53 PM 66.0 °F 41.0 °F 40% 29.81 in 10.0 mi WSW 15.0 mph - N/A   Overcast
8:53 PM 59.0 °F 48.9 °F 69% 29.86 in 9.0 mi WSW 9.2 mph - 0.02 in Rain Light Rain
9:53 PM 57.0 °F 50.0 °F 77% 29.88 in 5.0 mi SSE 5.8 mph - 0.07 in Rain Rain
10:53 PM 55.9 °F 52.0 °F 87% 29.90 in 10.0 mi ESE 8.1 mph - 0.14 in Rain Light Rain
11:53 PM 55.0 °F 51.1 °F 86% 29.90 in 10.0 mi ESE 8.1 mph - 0.03 in Rain Light Rain